Location: Northern Prairie Star Party
(53.2167°N, 112.5333°W)
Time: 11:21:48
(UTC-07:00)

Amateur Radio Satellites - All Passes

Search period start: 18 December 2014 10:51
Search period end: 19 December 2014 10:51
Location: Northern Prairie Star Party, 53.2167°N, 112.5333°W

Satellite Date Start Highest point End Downlink Frequencies (MHz)
Time Altitude Azimuth
DELFI C3 18 Dec 10:52:10 10:56:18 71° 288° (WNW) 11:00:25 145.870
50 SAT 18 Dec 10:54:58 10:58:52 38° 97° (E) 11:02:45 437.505
UKube-1 18 Dec 10:55:57 11:00:19 80° 288° (WNW) 11:04:39 .
HUMSAT D 18 Dec 10:57:01 11:01:13 48° 99° (E) 11:05:25 437.325/437.525
ESTCUBE 1 18 Dec 10:59:09 11:02:45 23° 92° (E) 11:06:19 437.505/2401.250
HO-68 18 Dec 11:00:29 11:07:17 48° 301° (WNW) 11:14:03 435.675
Oscar 19 18 Dec 11:02:08 11:05:00 15° 49° (NE) 11:07:52 437.125/150
VELOX 1 18 Dec 11:05:38 11:09:59 52° 101° (E) 11:14:18 145.980
GOMX 1 18 Dec 11:06:38 11:10:29 28° 297° (WNW) 11:14:33 467.674
DUCHIFAT 1 18 Dec 11:07:39 11:11:33 37° 263° (W) 11:15:29 145.980
ANTELSAT 18 Dec 11:07:42 11:11:30 28° 267° (W) 11:15:24 437.575/2403.000
ZACube-1 18 Dec 11:12:37 11:17:07 80° 287° (WNW) 11:21:40 437.345
BUGSAT 1 18 Dec 11:19:22 11:23:05 33° 263° (W) 11:26:48 437.445
QB50P2 18 Dec 11:19:40 11:23:21 29° 265° (W) 11:27:03 145.880/145.840
AAUSAT CUBESAT 2 18 Dec 11:22:50 11:26:03 21° 301° (WNW) 11:29:15 437.432
POLYITAN 1 18 Dec 11:27:51 11:31:19 24° 267° (W) 11:34:49 437.675
CANX-2 18 Dec 11:27:56 11:30:15 14° 306° (NW) 11:32:35 2200.000
CUSAT 1 18 Dec 11:32:21 11:36:00 34° 298° (WNW) 11:40:47 437.405
NANOSAT C BR1 18 Dec 11:32:33 11:35:54 23° 268° (W) 11:39:16 145.865
UWE-3 18 Dec 11:34:32 11:38:51 46° 292° (WNW) 11:43:15 435.000/436.395/437.385
FUNcube-1 18 Dec 11:40:20 11:44:37 47° 292° (WNW) 11:48:59 145.935
O/OREOS (USA 219) 18 Dec 11:43:40 11:47:44 34° 252° (WSW) 11:51:48 437.305
DOVE 4 18 Dec 11:44:21 11:47:33 19° 302° (WNW) 11:50:53 437.250
SPROUT 18 Dec 11:45:34 11:48:23 17° 89° (E) 11:51:12 437.525
TIGRISAT 18 Dec 11:46:53 11:49:11 14° 274° (W) 11:51:31 435.000
QB50P1 18 Dec 11:47:13 11:50:01 17° 271° (W) 11:52:51 145.935-145.965
AISAT 18 Dec 11:47:22 11:51:47 67° 289° (WNW) 11:56:11 437.250
TISAT 1 18 Dec 11:50:25 11:53:29 19° 91° (E) 11:56:31 437.305
COMPASS 1 18 Dec 11:57:49 11:59:07 11° 309° (NW) 12:00:25 437.405
DX 1 18 Dec 11:58:47 12:02:17 24° 300° (WNW) 12:05:47 434.975-435.025
CUBEBUG 1 18 Dec 12:02:37 12:06:59 77° 104° (ESE) 12:11:19 437.445
RS-15 18 Dec 12:04:06 12:13:46 39° 110° (ESE) 12:23:30 29.354- 29.394
DANDE 18 Dec 12:13:09 12:16:10 20° 307° (NW) 12:19:52 436.750
AO-7 18 Dec 12:14:48 12:19:44 18° 26° (NNE) 12:24:41 29.400- 29.500
YUBILEINY 18 Dec 12:24:22 12:32:47 56° 270° (W) 12:41:10 435.215
Oscar 11 18 Dec 12:27:04 12:28:56 13° 308° (NW) 12:30:48 145.826/435.025
CUBEBUG 2 18 Dec 12:28:28 12:31:27 18° 304° (NW) 12:34:29 437.445
CINEMA 3 18 Dec 12:29:10 12:31:20 13° 307° (NW) 12:33:31 145.822/145.860
DELFI C3 18 Dec 12:29:15 12:30:51 12° 307° (NW) 12:32:27 145.870
50 SAT 18 Dec 12:30:25 12:34:01 29° 296° (WNW) 12:37:37 437.505
Gurwin Techsat 1B 18 Dec 12:30:46 12:34:39 21° 53° (NE) 12:38:31 435.225
HUMSAT D 18 Dec 12:33:16 12:36:49 25° 298° (WNW) 12:40:22 437.325/437.525
UKube-1 18 Dec 12:33:31 12:35:49 14° 307° (NW) 12:38:07 .
ESTCUBE 1 18 Dec 12:35:32 12:39:57 54° 291° (WNW) 12:44:20 437.505/2401.250
Oscar 19 18 Dec 12:38:22 12:43:27 66° 70° (ENE) 12:48:36 437.125/150
VELOX 1 18 Dec 12:42:44 12:46:19 25° 300° (WNW) 12:49:54 145.980
ITAMSAT 1 18 Dec 12:49:01 12:53:46 38° 62° (ENE) 12:58:32 435.822/435.867
HO-68 18 Dec 12:49:20 12:53:27 17° 324° (NW) 12:57:33 435.675
ZACube-1 18 Dec 12:50:22 12:52:50 15° 306° (NW) 12:55:20 437.345
ITUPSAT 1 18 Dec 13:03:43 13:07:07 19° 89° (E) 13:10:29 437.325
SWISSCUBE 18 Dec 13:04:10 13:07:45 21° 90° (E) 13:11:19 437.505
SPROUT 18 Dec 13:20:40 13:24:58 70° 288° (WNW) 13:29:14 437.525
TISAT 1 18 Dec 13:25:31 13:29:41 59° 290° (WNW) 13:33:50 437.305
AISAT 18 Dec 13:25:44 13:27:38 13° 309° (NW) 13:29:32 437.250
BEESAT 18 Dec 13:29:18 13:33:33 31° 95° (E) 13:37:46 436.000
CUBEBUG 1 18 Dec 13:39:58 13:42:52 18° 304° (NW) 13:45:45 437.445
JAS-2 18 Dec 13:51:32 13:54:56 14° 41° (NE) 13:58:12 435.910
BEESAT 3 18 Dec 14:00:23 14:03:30 21° 116° (ESE) 14:06:39 437.485
AO-7 18 Dec 14:02:50 14:10:27 42° 51° (NE) 14:18:06 29.400- 29.500
AUBIESAT-1 18 Dec 14:08:06 14:11:49 24° 97° (E) 14:15:17 437.475
Gurwin Techsat 1B 18 Dec 14:08:41 14:14:01 87° 254° (WSW) 14:19:23 435.225
HORYU 2 18 Dec 14:09:33 14:13:48 45° 66° (ENE) 14:18:07 437.375
RS-15 18 Dec 14:14:15 14:25:12 82° 317° (NW) 14:36:22 29.354- 29.394
ESTCUBE 1 18 Dec 14:14:46 14:15:54 11° 311° (NW) 14:17:01 437.505/2401.250
PCSat 18 Dec 14:15:33 14:19:58 26° 111° (ESE) 14:24:25 145.827
Oscar 19 18 Dec 14:19:14 14:23:17 23° 270° (W) 14:27:22 437.125/150
YUBILEINY 18 Dec 14:23:31 14:27:33 14° 294° (WNW) 14:31:36 435.215
GONETS M04 18 Dec 14:25:38 14:30:58 17° 40° (NE) 14:36:14
ITAMSAT 1 18 Dec 14:28:22 14:33:15 41° 262° (W) 14:38:10 435.822/435.867
M-CUBED/EXP-1 PRIME 18 Dec 14:31:34 14:35:58 42° 103° (ESE) 14:40:00 437.505
BEESAT 2 18 Dec 14:37:07 14:40:57 38° 123° (ESE) 14:44:51 435.950
ITUPSAT 1 18 Dec 14:40:46 14:45:33 72° 289° (WNW) 14:50:18 437.325
SWISSCUBE 18 Dec 14:41:20 14:46:05 66° 290° (WNW) 14:50:48 437.505
SPROUT 18 Dec 14:58:30 15:00:19 13° 308° (NW) 15:02:07 437.525
TISAT 1 18 Dec 15:03:43 15:04:41 11° 310° (NW) 15:05:40 437.305
BEESAT 18 Dec 15:07:01 15:11:34 44° 294° (WNW) 15:16:05 436.000
ISS 18 Dec 15:08:36 15:10:39 16° 144° (SE) 15:12:42 145.825
KKS-1 18 Dec 15:11:44 15:16:11 62° 102° (ESE) 15:20:37 437.445
STARS 18 Dec 15:13:16 15:17:34 46° 99° (E) 15:21:50 437.465
Cubesat XI-IV 18 Dec 15:29:21 15:31:23 12° 44° (NE) 15:33:25 437.490
AIST 2 18 Dec 15:30:24 15:34:35 57° 128° (SE) 15:38:50 435.215
JAS-2 18 Dec 15:31:33 15:38:33 45° 62° (ENE) 15:44:56 435.910
BEESAT 3 18 Dec 15:37:09 15:41:18 71° 317° (NW) 15:45:30 437.485
AUBIESAT-1 18 Dec 15:42:36 15:47:06 53° 298° (WNW) 15:51:14 437.475
AIST 1 18 Dec 15:44:19 15:45:12 11° 79° (E) 15:46:06
HORYU 2 18 Dec 15:46:50 15:50:40 27° 266° (W) 15:54:33 437.375
Gurwin Techsat 1B 18 Dec 15:51:30 15:54:47 16° 274° (W) 15:58:06 435.225
AO-7 18 Dec 15:54:37 16:02:55 68° 254° (WSW) 16:11:17 29.400- 29.500
PCSat 18 Dec 15:57:31 16:02:57 73° 312° (NW) 16:08:25 145.827
CUTE-I 18 Dec 16:01:15 16:04:53 19° 51° (NE) 16:08:31 437.470
MOZHAYETS 4 18 Dec 16:05:56 16:07:44 12° 84° (E) 16:09:31
M-CUBED/EXP-1 PRIME 18 Dec 16:06:43 16:10:53 33° 305° (NW) 16:14:45 437.505
BEESAT 2 18 Dec 16:15:12 16:19:12 44° 324° (NW) 16:23:16 435.950
ITUPSAT 1 18 Dec 16:20:02 16:22:40 15° 309° (NW) 16:25:18 437.325
SWISSCUBE 18 Dec 16:20:44 16:23:07 14° 310° (NW) 16:25:29 437.505
GONETS M04 18 Dec 16:21:54 16:30:28 51° 68° (ENE) 16:38:54
RS-15 18 Dec 16:28:37 16:39:08 49° 348° (NNW) 16:49:57 29.354- 29.394
ISS 18 Dec 16:43:31 16:46:41 46° 163° (SSE) 16:49:52 145.825
KKS-1 18 Dec 16:49:03 16:52:29 22° 302° (WNW) 16:55:55 437.445
STARS 18 Dec 16:50:07 16:53:53 28° 299° (WNW) 16:57:38 437.465
Cubesat XI-IV 18 Dec 17:05:14 17:10:21 49° 65° (ENE) 17:15:28 437.490
AIST 2 18 Dec 17:09:30 17:13:27 35° 329° (NNW) 17:17:27 435.215
JAS-2 18 Dec 17:16:07 17:23:32 54° 261° (W) 17:30:18 435.910
BEESAT 3 18 Dec 17:16:48 17:20:10 23° 339° (NNW) 17:23:33 437.485
AIST 1 18 Dec 17:17:41 17:22:04 76° 99° (E) 17:26:26
AUBIESAT-1 18 Dec 17:19:07 17:21:04 13° 319° (NW) 17:22:58 437.475
CUTE-I 18 Dec 17:38:55 17:44:15 83° 72° (ENE) 17:49:36 437.470
PRISM 18 Dec 17:40:05 17:42:23 14° 88° (E) 17:44:41 437.425
MOZHAYETS 4 18 Dec 17:41:07 17:45:48 77° 104° (ESE) 17:50:25
PCSat 18 Dec 17:42:42 17:47:15 26° 336° (NNW) 17:51:49 145.827
AO-7 18 Dec 17:52:08 17:57:23 18° 277° (W) 18:02:41 29.400- 29.500
BEESAT 2 18 Dec 17:55:23 17:58:26 19° 347° (NNW) 18:01:30 435.950
HO-68 18 Dec 18:02:41 18:07:49 22° 43° (NE) 18:12:57 435.675
STRAND 1 18 Dec 18:15:26 18:18:44 17° 87° (E) 18:22:00 437.568
MaSat-1 18 Dec 18:17:41 18:20:00 68° 55° (NE) 18:22:24 437.345
GONETS M04 18 Dec 18:19:02 18:27:21 50° 272° (W) 18:35:35
ISS 18 Dec 18:19:50 18:23:07 67° 182° (S) 18:26:23 145.825
BRITE-PL 18 Dec 18:31:31 18:32:10 10° 50° (NE) 18:32:49 437.365/2234.400
CUSAT 1 18 Dec 18:37:14 18:41:54 19° 51° (NE) 18:47:08 437.405
RS-15 18 Dec 18:43:18 18:54:04 53° 20° (NNE) 19:05:13 29.354- 29.394
Cubesat XI-IV 18 Dec 18:45:53 18:50:39 33° 265° (W) 18:55:26 437.490
AIST 2 18 Dec 18:50:11 18:53:13 18° 352° (N) 18:56:16 435.215
BEESAT 3 18 Dec 18:56:55 18:59:42 17° 3° (N) 19:02:28 437.485
AIST 1 18 Dec 18:57:26 19:00:18 17° 299° (WNW) 19:03:09
CUBESAT XI-V 18 Dec 18:57:55 19:02:19 41° 97° (E) 19:06:39 437.345
JAS-2 18 Dec 19:07:05 19:10:00 13° 281° (W) 19:12:51 435.910
GOMX 1 18 Dec 19:07:09 19:09:39 16° 55° (NE) 19:12:11 467.674
AAUSAT CUBESAT 2 18 Dec 19:10:25 19:12:50 15° 55° (NE) 19:15:16 437.432
PRISM 18 Dec 19:14:17 19:18:30 79° 287° (WNW) 19:22:39 437.425
CANX-2 18 Dec 19:14:56 19:18:22 24° 61° (ENE) 19:21:49 2200.000
DANDE 18 Dec 19:17:56 19:23:35 27° 58° (ENE) 19:30:10 436.750
MOZHAYETS 4 18 Dec 19:19:13 19:22:32 20° 304° (WNW) 19:25:49
CUTE-I 18 Dec 19:21:19 19:25:01 19° 272° (W) 19:28:43 437.470
PCSat 18 Dec 19:28:39 19:32:28 19° 2° (N) 19:36:18 145.827
BEESAT 2 18 Dec 19:35:07 19:38:06 18° 11° (N) 19:41:05 435.950
DOVE 4 18 Dec 19:41:34 19:44:52 23° 60° (ENE) 19:48:13 437.250
COMPASS 1 18 Dec 19:42:36 19:46:16 29° 63° (ENE) 19:49:57 437.405
SEEDS 18 Dec 19:44:56 19:48:48 34° 65° (ENE) 19:52:41 437.485
CUTE 1.7 + AOD 2 18 Dec 19:45:21 19:49:20 39° 66° (ENE) 19:53:21 437.475
HO-68 18 Dec 19:47:18 19:54:24 68° 65° (ENE) 20:01:32 435.675
DX 1 18 Dec 19:49:27 19:52:18 17° 55° (NE) 19:55:10 434.975-435.025
STRAND 1 18 Dec 19:53:30 19:58:38 87° 287° (WNW) 20:03:44 437.568
ISS 18 Dec 19:56:25 19:59:29 36° 202° (SSW) 20:02:32 145.825
BRITE-PL 18 Dec 20:05:46 20:09:53 62° 71° (ENE) 20:14:00 437.365/2234.400
DELFI C3 18 Dec 20:12:27 20:15:46 24° 61° (ENE) 20:19:06 145.870
Oscar 11 18 Dec 20:14:33 20:18:20 30° 63° (ENE) 20:22:08 145.826/435.025
GONETS M04 18 Dec 20:18:56 20:21:51 12° 296° (WNW) 20:24:47
CUSAT 1 18 Dec 20:19:22 20:26:18 60° 71° (ENE) 20:34:31 437.405
CUBEBUG 2 18 Dec 20:20:03 20:23:22 23° 60° (ENE) 20:26:46 437.445
UKube-1 18 Dec 20:21:43 20:25:28 29° 62° (ENE) 20:29:15 .
CINEMA 3 18 Dec 20:22:06 20:25:52 33° 64° (ENE) 20:29:45 145.822/145.860
HUMSAT D 18 Dec 20:22:27 20:24:22 13° 53° (NE) 20:26:18 437.325/437.525
AIST 2 18 Dec 20:29:56 20:33:16 21° 16° (NNE) 20:36:35 435.215
VELOX 1 18 Dec 20:34:59 20:37:56 18° 55° (NE) 20:40:53 145.980
BEESAT 3 18 Dec 20:35:30 20:39:08 27° 26° (NNE) 20:42:45 437.485
CUBESAT XI-V 18 Dec 20:35:35 20:39:41 32° 297° (WNW) 20:43:44 437.345
ZACube-1 18 Dec 20:39:40 20:43:09 26° 61° (ENE) 20:46:44 437.345
GOMX 1 18 Dec 20:43:07 20:47:16 81° 256° (WSW) 20:51:30 467.674
AAUSAT CUBESAT 2 18 Dec 20:43:41 20:47:54 90° 74° (ENE) 20:52:11 437.432
CANX-2 18 Dec 20:49:52 20:54:03 52° 260° (W) 20:58:17 2200.000
PRISM 18 Dec 20:51:19 20:53:22 13° 307° (NW) 20:55:24 437.425
RS-15 18 Dec 20:56:21 21:07:32 84° 230° (SW) 21:19:13 29.354- 29.394
DANDE 18 Dec 21:00:51 21:07:50 86° 77° (ENE) 21:16:19 436.750
UWE-3 18 Dec 21:01:48 21:05:48 44° 68° (ENE) 21:09:55 435.000/436.395/437.385
FUNcube-1 18 Dec 21:06:27 21:10:25 42° 67° (ENE) 21:14:29 145.935
PCSat 18 Dec 21:12:54 21:17:37 29° 27° (NNE) 21:22:19 145.827
BEESAT 2 18 Dec 21:13:26 21:17:25 38° 34° (NE) 21:21:21 435.950
AISAT 18 Dec 21:15:33 21:19:35 36° 64° (ENE) 21:23:38 437.250
COMPASS 1 18 Dec 21:17:54 21:21:53 40° 263° (W) 21:25:55 437.405
DOVE 4 18 Dec 21:18:24 21:22:25 49° 261° (W) 21:26:33 437.250
SEEDS 18 Dec 21:20:47 21:24:39 33° 265° (W) 21:28:33 437.485
CUTE 1.7 + AOD 2 18 Dec 21:21:37 21:25:22 29° 266° (W) 21:29:09 437.475
SO-50 18 Dec 21:22:31 21:25:31 17° 113° (ESE) 21:28:35 436.795
DX 1 18 Dec 21:23:41 21:28:03 81° 255° (WSW) 21:32:25 434.975-435.025
CUBEBUG 1 18 Dec 21:29:58 21:33:20 22° 59° (ENE) 21:36:42 437.445
STRAND 1 18 Dec 21:33:42 21:37:10 19° 308° (NW) 21:40:38 437.568
ISS 18 Dec 21:34:31 21:35:22 11° 221° (SW) 21:36:13 145.825
HO-68 18 Dec 21:36:18 21:42:39 33° 266° (W) 21:49:02 435.675
BRITE-PL 18 Dec 21:46:09 21:48:54 17° 271° (W) 21:51:39 437.365/2234.400
DELFI C3 18 Dec 21:46:49 21:50:49 48° 261° (W) 21:54:51 145.870
50 SAT 18 Dec 21:49:17 21:53:14 56° 70° (ENE) 21:57:14 437.505
Oscar 11 18 Dec 21:50:19 21:54:24 40° 263° (W) 21:58:33 145.826/435.025
TIGRISAT 18 Dec 21:54:24 21:56:42 13° 85° (E) 21:59:00 435.000
HUMSAT D 18 Dec 21:55:20 21:59:28 77° 73° (ENE) 22:03:41 437.325/437.525
CUBEBUG 2 18 Dec 21:55:42 21:59:48 52° 260° (W) 22:04:02 437.445
UKube-1 18 Dec 21:57:26 22:01:32 41° 261° (W) 22:05:40 .
CINEMA 3 18 Dec 21:59:21 22:03:07 33° 265° (W) 22:07:01 145.822/145.860
CUSAT 1 18 Dec 22:02:42 22:09:19 42° 269° (W) 22:16:58 437.405
ESTCUBE 1 18 Dec 22:04:43 22:09:02 44° 67° (ENE) 22:13:22 437.505/2401.250
AIST 2 18 Dec 22:08:30 22:12:46 53° 39° (NE) 22:16:58 435.215
VELOX 1 18 Dec 22:09:34 22:14:00 81° 255° (WSW) 22:18:27 145.980
BEESAT 3 18 Dec 22:13:34 22:17:48 83° 227° (SW) 22:21:57 437.485
ZACube-1 18 Dec 22:15:19 22:19:21 45° 262° (W) 22:23:30 437.345
POPSAT HIP 1 18 Dec 22:18:38 22:20:46 14° 87° (E) 22:22:54 437.405
UNISAT 6 18 Dec 22:21:26 22:25:10 23° 91° (E) 22:28:55 437.425
AAUSAT CUBESAT 2 18 Dec 22:22:20 22:24:15 13° 274° (W) 22:26:10 437.432
GOMX 1 18 Dec 22:25:28 22:26:14 10° 276° (W) 22:27:00 467.674
UWE-3 18 Dec 22:39:06 22:42:35 25° 268° (W) 22:46:09 435.000/436.395/437.385
FUNcube-1 18 Dec 22:43:25 22:46:58 26° 267° (W) 22:50:36 145.935
SWISSCUBE 18 Dec 22:43:38 22:44:24 10° 46° (NE) 22:45:10 437.505
DANDE 18 Dec 22:45:04 22:50:52 28° 274° (W) 22:57:29 436.750
SPROUT 18 Dec 22:45:41 22:49:22 29° 63° (ENE) 22:53:04 437.525
DUCHIFAT 1 18 Dec 22:46:44 22:50:11 24° 93° (E) 22:53:38 145.980
TISAT 1 18 Dec 22:48:52 22:52:38 32° 64° (ENE) 22:56:24 437.305
BEESAT 2 18 Dec 22:51:44 22:55:47 46° 235° (SW) 22:59:46 435.950
AISAT 18 Dec 22:52:14 22:56:15 34° 264° (W) 23:00:18 437.250
ANTELSAT 18 Dec 22:52:44 22:57:12 41° 98° (E) 23:01:40 437.575/2403.000
BUGSAT 1 18 Dec 22:55:43 22:58:58 23° 93° (E) 23:02:12 437.445
PCSat 18 Dec 22:56:18 23:01:47 85° 51° (NE) 23:07:13 145.827
QB50P2 18 Dec 22:58:36 23:02:25 31° 95° (E) 23:06:12 145.880/145.840
SO-50 18 Dec 23:00:47 23:05:24 87° 133° (SE) 23:10:12 436.795
DX 1 18 Dec 23:03:27 23:05:02 12° 274° (W) 23:06:37 434.975-435.025
CUBEBUG 1 18 Dec 23:05:05 23:09:24 59° 258° (WSW) 23:13:43 437.445
POLYITAN 1 18 Dec 23:06:36 23:10:34 36° 97° (E) 23:14:33 437.675
BEESAT 18 Dec 23:06:58 23:09:32 15° 50° (NE) 23:12:05 436.000
RS-15 18 Dec 23:09:21 23:18:30 31° 255° (WSW) 23:28:00 29.354- 29.394
NANOSAT C BR1 18 Dec 23:10:38 23:14:38 38° 98° (E) 23:18:37 145.865
QB50P1 18 Dec 23:24:36 23:28:46 52° 100° (E) 23:32:56 145.935-145.965
50 SAT 18 Dec 23:25:56 23:28:49 19° 270° (W) 23:31:45 437.505
AUBIESAT-1 18 Dec 23:29:00 23:32:26 20° 48° (NE) 23:35:52 437.475
TIGRISAT 18 Dec 23:29:29 23:34:11 82° 105° (ESE) 23:38:55 435.000
HUMSAT D 18 Dec 23:33:30 23:35:51 15° 273° (W) 23:38:13 437.325/437.525
YUBILEINY 18 Dec 23:36:46 23:44:37 39° 84° (E) 23:52:28 435.215
ESTCUBE 1 18 Dec 23:42:09 23:46:05 28° 266° (W) 23:50:02 437.505/2401.250
AIST 2 18 Dec 23:47:26 23:51:14 31° 240° (WSW) 23:55:00 435.215
VELOX 1 18 Dec 23:49:38 23:51:21 12° 275° (W) 23:53:04 145.980
M-CUBED/EXP-1 PRIME 18 Dec 23:52:11 23:56:21 29° 54° (NE) 00:00:32 437.505
POPSAT HIP 1 18 Dec 23:53:01 23:57:18 86° 285° (WNW) 00:01:34 437.405
BEESAT 3 18 Dec 23:53:04 23:55:20 14° 248° (WSW) 23:57:36 437.485
UNISAT 6 18 Dec 23:57:42 00:02:18 58° 290° (WNW) 00:06:56 437.425
ITUPSAT 1 19 Dec 00:16:19 00:20:52 43° 65° (ENE) 00:25:25 437.325
SWISSCUBE 19 Dec 00:16:36 00:21:12 47° 66° (ENE) 00:25:48 437.505
SPROUT 19 Dec 00:21:19 00:25:21 40° 262° (W) 00:29:26 437.525
DUCHIFAT 1 19 Dec 00:22:12 00:26:17 47° 292° (WNW) 00:30:22 145.980
TISAT 1 19 Dec 00:24:36 00:28:27 34° 263° (W) 00:32:19 437.305
O/OREOS (USA 219) 19 Dec 00:25:26 00:27:16 12° 98° (E) 00:29:06 437.305
ANTELSAT 19 Dec 00:29:44 00:33:55 33° 297° (WNW) 00:38:08 437.575/2403.000
BUGSAT 1 19 Dec 00:30:49 00:34:42 45° 292° (WNW) 00:38:34 437.445
QB50P2 19 Dec 00:34:28 00:38:24 37° 294° (WNW) 00:42:20 145.880/145.840
PCSat 19 Dec 00:40:33 00:44:35 22° 251° (WSW) 00:48:37 145.827
KKS-1 19 Dec 00:41:06 00:44:20 20° 57° (ENE) 00:47:35 437.445
BEESAT 19 Dec 00:41:49 00:46:35 70° 71° (ENE) 00:51:23 436.000
SO-50 19 Dec 00:42:21 00:46:30 30° 336° (NNW) 00:50:47 436.795
STARS 19 Dec 00:42:23 00:44:59 16° 54° (NE) 00:47:35 437.465
POLYITAN 1 19 Dec 00:42:41 00:46:29 32° 296° (WNW) 00:50:18 437.675
Oscar 19 19 Dec 00:44:52 00:47:48 15° 85° (E) 00:50:44 437.125/150
NANOSAT C BR1 19 Dec 00:46:44 00:50:26 30° 297° (WNW) 00:54:08 145.865
QB50P1 19 Dec 01:01:02 01:04:24 23° 300° (WNW) 01:07:47 145.935-145.965
AUBIESAT-1 19 Dec 01:01:53 01:06:46 84° 67° (ENE) 01:11:41 437.475
TIGRISAT 19 Dec 01:07:11 01:10:25 19° 304° (NW) 01:13:39 435.000
M-CUBED/EXP-1 PRIME 19 Dec 01:26:14 01:31:04 60° 253° (WSW) 01:35:57 437.505
POPSAT HIP 1 19 Dec 01:30:14 01:32:35 15° 306° (NW) 01:34:57 437.405
YUBILEINY 19 Dec 01:32:26 01:41:05 63° 288° (WNW) 01:49:45 435.215
UNISAT 6 19 Dec 01:36:25 01:38:12 12° 310° (NW) 01:40:01 437.425
ITUPSAT 1 19 Dec 01:54:35 01:58:54 32° 265° (W) 02:03:13 437.325
SWISSCUBE 19 Dec 01:55:04 01:59:15 29° 266° (W) 02:03:28 437.505
O/OREOS (USA 219) 19 Dec 02:01:26 02:05:54 80° 118° (ESE) 02:10:24 437.305
KKS-1 19 Dec 02:16:09 02:20:34 69° 257° (WSW) 02:25:01 437.445
STARS 19 Dec 02:16:27 02:20:51 87° 74° (ENE) 02:25:17 437.465
Gurwin Techsat 1B 19 Dec 02:19:02 02:23:19 24° 91° (E) 02:27:34 435.225
BEESAT 19 Dec 02:21:26 02:24:56 20° 270° (W) 02:28:27 436.000
Oscar 19 19 Dec 02:22:45 02:27:59 82° 105° (ESE) 02:33:12 437.125/150
SO-50 19 Dec 02:24:46 02:28:24 21° 0° (N) 02:32:07 436.795
ITAMSAT 1 19 Dec 02:34:26 02:39:24 45° 99° (E) 02:44:20 435.822/435.867
AUBIESAT-1 19 Dec 02:38:56 02:42:16 18° 266° (W) 02:45:39 437.475
M-CUBED/EXP-1 PRIME 19 Dec 03:05:56 03:07:01 11° 272° (W) 03:08:07 437.505
MOZHAYETS 4 19 Dec 03:13:12 03:16:57 25° 60° (ENE) 03:20:42
AIST 1 19 Dec 03:18:44 03:22:46 37° 71° (ENE) 03:26:44
HORYU 2 19 Dec 03:31:22 03:35:37 38° 97° (E) 03:39:50 437.375
YUBILEINY 19 Dec 03:33:58 03:40:02 20° 314° (NW) 03:46:08 435.215
O/OREOS (USA 219) 19 Dec 03:42:25 03:45:52 22° 319° (NW) 03:49:21 437.305
GONETS M04 19 Dec 03:42:57 03:44:46 11° 62° (ENE) 03:46:34
AO-7 19 Dec 03:49:17 03:56:28 30° 92° (E) 04:03:36 29.400- 29.500
STARS 19 Dec 03:55:42 03:57:59 14° 273° (W) 04:00:17 437.465
KKS-1 19 Dec 03:57:50 03:58:05 10° 276° (W) 03:58:21 437.445
Gurwin Techsat 1B 19 Dec 03:58:28 04:03:45 65° 291° (WNW) 04:09:00 435.225
STRAND 1 19 Dec 04:02:31 04:03:46 11° 44° (NE) 04:05:01 437.568
Oscar 19 19 Dec 04:02:55 04:06:47 22° 306° (NW) 04:10:40 437.125/150
SO-50 19 Dec 04:05:59 04:10:18 31° 25° (NNE) 04:14:40 436.795
ITAMSAT 1 19 Dec 04:14:09 04:18:50 35° 299° (WNW) 04:23:29 435.822/435.867
JAS-2 19 Dec 04:20:40 04:24:24 17° 83° (E) 04:27:56 435.910
CUBESAT XI-V 19 Dec 04:32:33 04:35:16 16° 53° (NE) 04:37:58 437.345
PRISM 19 Dec 04:36:20 04:39:52 26° 61° (ENE) 04:43:24 437.425
MOZHAYETS 4 19 Dec 04:49:17 04:53:52 58° 259° (W) 04:58:30
AIST 1 19 Dec 04:56:38 05:00:20 28° 271° (W) 05:03:59
HORYU 2 19 Dec 05:08:11 05:12:16 34° 297° (WNW) 05:16:19 437.375
Cubesat XI-IV 19 Dec 05:18:16 05:20:00 12° 82° (E) 05:21:44 437.490
GONETS M04 19 Dec 05:30:54 05:39:07 45° 86° (E) 05:47:20
STRAND 1 19 Dec 05:36:57 05:41:48 45° 65° (ENE) 05:46:40 437.568
Gurwin Techsat 1B 19 Dec 05:39:49 05:42:49 15° 312° (NW) 05:45:48 435.225
AO-7 19 Dec 05:41:44 05:50:09 81° 294° (WNW) 05:58:31 29.400- 29.500
SO-50 19 Dec 05:46:31 05:51:24 88° 226° (SW) 05:56:20 436.795
CUTE-I 19 Dec 05:50:24 05:54:22 21° 89° (E) 05:58:18 437.470
JAS-2 19 Dec 06:04:34 06:10:37 89° 106° (ESE) 06:16:01 435.910
CUBESAT XI-V 19 Dec 06:07:21 06:12:02 80° 73° (ENE) 06:16:43 437.345
PRISM 19 Dec 06:11:09 06:15:14 45° 260° (W) 06:19:19 437.425
Cubesat XI-IV 19 Dec 06:55:53 07:01:12 64° 103° (ESE) 07:06:28 437.490
STRAND 1 19 Dec 07:16:32 07:21:09 33° 265° (W) 07:25:46 437.568
PHONESAT 2.4 19 Dec 07:24:19 07:25:24 11° 185° (S) 07:26:29 2401.200-2431.200
GONETS M04 19 Dec 07:27:11 07:35:50 56° 290° (WNW) 07:44:32
SO-50 19 Dec 07:27:58 07:31:23 19° 246° (WSW) 07:34:48 436.795
CUTE-I 19 Dec 07:29:42 07:35:02 76° 289° (WNW) 07:40:20 437.470
AO-7 19 Dec 07:35:07 07:41:57 29° 318° (NW) 07:48:46 29.400- 29.500
YUBILEINY 19 Dec 07:43:33 07:44:35 10° 24° (NNE) 07:45:37 435.215
CUBESAT XI-V 19 Dec 07:47:06 07:50:04 17° 273° (W) 07:53:02 437.345
JAS-2 19 Dec 07:50:29 07:54:55 22° 310° (NW) 07:59:02 435.910
BRITE-PL 19 Dec 08:04:46 08:06:57 13° 86° (E) 08:09:11 437.365/2234.400
AAUSAT CUBESAT 2 19 Dec 08:23:53 08:24:34 10° 84° (E) 08:25:14 437.432
ANTELSAT 19 Dec 08:24:08 08:26:25 14° 52° (NE) 08:28:45 437.575/2403.000
CANX-2 19 Dec 08:29:50 08:32:59 19° 90° (E) 08:36:07 2200.000
POLYITAN 1 19 Dec 08:33:44 08:34:57 11° 51° (NE) 08:36:10 437.675
Cubesat XI-IV 19 Dec 08:36:32 08:40:57 27° 303° (WNW) 08:45:21 437.490
NANOSAT C BR1 19 Dec 08:37:04 08:38:33 12° 51° (NE) 08:40:01 145.865
GOMX 1 19 Dec 08:38:29 08:41:53 20° 90° (E) 08:45:25 467.674
O/OREOS (USA 219) 19 Dec 08:47:19 08:50:22 17° 36° (NE) 08:53:24 437.305
QB50P1 19 Dec 08:50:08 08:52:30 15° 54° (NE) 08:54:52 145.935-145.965
HO-68 19 Dec 08:55:49 09:02:27 39° 96° (E) 09:09:02 435.675
COMPASS 1 19 Dec 08:55:53 08:59:19 23° 92° (E) 09:02:44 437.405
TIGRISAT 19 Dec 08:59:03 09:02:35 24° 59° (ENE) 09:06:12 435.000
SEEDS 19 Dec 08:59:07 09:02:52 28° 94° (E) 09:06:35 437.485
CUTE 1.7 + AOD 2 19 Dec 09:00:23 09:04:19 33° 95° (E) 09:08:13 437.475
DX 1 19 Dec 09:08:01 09:09:32 12° 86° (E) 09:11:02 434.975-435.025
DOVE 4 19 Dec 09:10:38 09:14:40 28° 94° (E) 09:18:53 437.250
CUTE-I 19 Dec 09:10:56 09:14:19 18° 310° (NW) 09:17:43 437.470
MaSat-1 19 Dec 09:16:17 09:17:22 13° 113° (ESE) 09:18:27 437.345
POPSAT HIP 1 19 Dec 09:17:22 09:20:44 24° 60° (ENE) 09:24:07 437.405
DELFI C3 19 Dec 09:22:06 09:24:51 17° 89° (E) 09:27:35 145.870
UNISAT 6 19 Dec 09:26:38 09:30:45 40° 66° (ENE) 09:34:59 437.425
AO-7 19 Dec 09:28:21 09:32:07 14° 344° (NNW) 09:35:54 29.400- 29.500
GONETS M04 19 Dec 09:29:23 09:35:07 18° 318° (NW) 09:40:53
Oscar 11 19 Dec 09:31:37 09:35:15 25° 93° (E) 09:38:51 145.826/435.025
YUBILEINY 19 Dec 09:37:59 09:45:23 30° 56° (NE) 09:52:43 435.215
CUSAT 1 19 Dec 09:39:08 09:42:37 30° 87° (E) 09:47:07 437.405
UKube-1 19 Dec 09:39:21 09:42:44 22° 92° (E) 09:46:05 .
CUBEBUG 2 19 Dec 09:40:48 09:44:26 23° 91° (E) 09:48:07 437.445
BRITE-PL 19 Dec 09:41:35 09:46:07 83° 104° (ESE) 09:51:01 437.365/2234.400
DUCHIFAT 1 19 Dec 09:45:27 09:49:22 39° 66° (ENE) 09:53:18 145.980
CINEMA 3 19 Dec 09:47:05 09:51:24 37° 97° (E) 09:55:53 145.822/145.860
BUGSAT 1 19 Dec 09:51:55 09:55:42 37° 66° (ENE) 09:59:28 437.445
VELOX 1 19 Dec 09:55:50 09:57:54 13° 86° (E) 09:59:58 145.980
AAUSAT CUBESAT 2 19 Dec 09:56:45 10:01:02 74° 103° (ESE) 10:05:16 437.432
QB50P2 19 Dec 09:57:42 10:01:48 52° 69° (ENE) 10:05:56 145.880/145.840
ZACube-1 19 Dec 09:57:57 10:01:37 24° 92° (E) 10:05:18 437.345
ANTELSAT 19 Dec 09:58:04 10:02:28 74° 72° (ENE) 10:07:00 437.575/2403.000
CANX-2 19 Dec 10:05:02 10:09:20 61° 289° (WNW) 10:13:35 2200.000
POLYITAN 1 19 Dec 10:05:55 10:10:05 62° 71° (ENE) 10:14:17 437.675
NANOSAT C BR1 19 Dec 10:09:29 10:13:39 66° 71° (ENE) 10:17:51 145.865
GOMX 1 19 Dec 10:15:52 10:20:25 68° 288° (WNW) 10:25:17 467.674
UWE-3 19 Dec 10:21:43 10:26:04 43° 98° (E) 10:30:29 435.000/436.395/437.385
DANDE 19 Dec 10:23:17 10:26:57 62° 97° (E) 10:31:58 436.750
QB50P1 19 Dec 10:23:34 10:27:48 88° 72° (ENE) 10:32:03 145.935-145.965
FUNcube-1 19 Dec 10:24:50 10:29:04 39° 97° (E) 10:33:21 145.935
O/OREOS (USA 219) 19 Dec 10:26:04 10:30:35 73° 58° (ENE) 10:35:06 437.305
COMPASS 1 19 Dec 10:31:10 10:35:18 49° 291° (WNW) 10:39:25 437.405
TIGRISAT 19 Dec 10:34:46 10:39:03 54° 260° (W) 10:43:29 435.000
SEEDS 19 Dec 10:34:47 10:38:49 40° 293° (WNW) 10:42:50 437.485
CUTE 1.7 + AOD 2 19 Dec 10:36:20 10:40:17 35° 295° (WNW) 10:44:13 437.475
AISAT 19 Dec 10:36:51 10:40:47 30° 95° (E) 10:44:42 437.250
DX 1 19 Dec 10:42:09 10:46:32 80° 105° (ESE) 10:50:53 434.975-435.025
